TimeMST,TemperatureF,Dew PointF,Humidity,Sea Level PressureIn,VisibilityMPH,Wind Direction,Wind SpeedMPH,Gust SpeedMPH,PrecipitationIn,Events,Conditions,WindDirDegrees,DateUTC
12:56 AM,27.0,24.1,89,30.23,10.0,NW,6.9,-,N/A,,Clear,310,2012-11-15 07:56:00
1:56 AM,27.0,24.1,89,30.26,10.0,WNW,8.1,-,N/A,,Clear,300,2012-11-15 08:56:00
2:56 AM,24.1,21.9,91,30.30,10.0,WNW,8.1,-,N/A,,Clear,300,2012-11-15 09:56:00
3:56 AM,21.9,19.9,92,30.34,10.0,NW,6.9,-,N/A,,Clear,310,2012-11-15 10:56:00
4:56 AM,19.0,17.1,92,30.38,10.0,WSW,3.5,-,N/A,,Clear,250,2012-11-15 11:56:00
5:56 AM,19.0,16.0,88,30.38,10.0,West,3.5,-,N/A,,Clear,270,2012-11-15 12:56:00
6:56 AM,19.9,18.0,92,30.39,10.0,West,6.9,-,N/A,,Clear,280,2012-11-15 13:56:00
7:56 AM,23.0,21.0,92,30.42,10.0,Calm,Calm,-,N/A,,Clear,0,2012-11-15 14:56:00
8:56 AM,28.0,26.1,92,30.42,10.0,SSW,4.6,-,N/A,,Clear,200,2012-11-15 15:56:00
9:56 AM,33.1,26.1,75,30.44,10.0,South,5.8,-,N/A,,Clear,190,2012-11-15 16:56:00
10:56 AM,37.9,25.0,60,30.42,10.0,SSE,9.2,-,N/A,,Clear,160,2012-11-15 17:56:00
11:56 AM,41.0,24.1,51,30.38,10.0,South,10.4,-,N/A,,Clear,180,2012-11-15 18:56:00
12:56 PM,42.1,25.0,51,30.37,10.0,South,11.5,-,N/A,,Clear,180,2012-11-15 19:56:00
1:56 PM,44.1,26.1,49,30.34,10.0,SSE,13.8,-,N/A,,Clear,160,2012-11-15 20:56:00
2:56 PM,43.0,23.0,45,30.34,10.0,South,15.0,-,N/A,,Clear,170,2012-11-15 21:56:00
3:56 PM,37.9,23.0,55,30.35,10.0,SSE,10.4,-,N/A,,Clear,160,2012-11-15 22:56:00
4:56 PM,33.1,23.0,66,30.35,10.0,SSE,9.2,-,N/A,,Clear,160,2012-11-15 23:56:00
5:56 PM,34.0,21.9,61,30.34,10.0,South,16.1,-,N/A,,Clear,170,2012-11-16 00:56:00
6:56 PM,33.1,21.9,64,30.33,10.0,South,16.1,-,N/A,,Clear,170,2012-11-16 01:56:00
7:56 PM,33.1,23.0,66,30.33,10.0,South,16.1,-,N/A,,Clear,180,2012-11-16 02:56:00
8:56 PM,30.9,24.1,76,30.31,10.0,South,12.7,-,N/A,,Clear,170,2012-11-16 03:56:00
9:56 PM,30.0,23.0,75,30.29,10.0,SSE,15.0,-,N/A,,Clear,160,2012-11-16 04:56:00
10:56 PM,28.9,24.1,82,30.26,10.0,South,13.8,-,N/A,,Clear,170,2012-11-16 05:56:00
11:56 PM,30.0,25.0,82,30.22,10.0,South,16.1,-,N/A,,Clear,170,2012-11-16 06:56:00